GPS BIIF-7

Last updated on Sat Jun 27 2026 00:02:55 GMT+0000 (Coordinated Universal Time)

1 40105U 14045A 26177.02815772 -.00000068 00000+0 00000+0 0 9992 2 40105 55.3587 88.1127 0033686 118.2750 242.0678 2.00559107 86251
UTC large
Height (km)
Speed (km/s)
/
Latitude / Longitude
Inclination (degrees)
Orbital Period (minutes)
Azimuth
Elevation
Range (km)
Doppler Factor

Next 0 passes for location: London (51.5072 / 0.1276)

No passes found over London.
GPS BIIF-7